Location: Antioch Church
(34.9543°N, 88.5145°W)
Time: 19:59:28
(UTC+00:00)

CZ-4C R/B - Pass Details

Date: 11 December 2019
Orbit: 646 x 1356 km, 63.4° (Epoch: 24 January)

Event Time Altitude Azimuth Distance (km) Brightness Sun altitude
Exits shadow 11:22:22 25° 298° (WNW) 2,304 3.8 -17.8°
Maximum altitude 11:26:20 40° 247° (WSW) 1,822 3.5 -17.0°
Drops below altitude 10° 11:34:00 10° 182° (S) 3,394 5.5 -15.5°
Sets 11:37:07 0° 175° (S) 4,366 6.2 -14.9°
